Wind_Speed
9 13 18 19 16 16 16 13 11 10 11 12 11 8 8 9 8 9 9 8 10 12 12 12 14 15 14 16 16 15 15 15 15 15 18 21 20 18 14 12 9 6 5
7 12 17 20 19 16 15 14 13 12 11 12 11 11 7 7 7 8 9 8 9 10 10 11 11 12 11 12 12 13 14 15 17 19 20 19 18 15 12 9 7 7 6
7 12 16 18 20 18 17 17 16 14 13 11 10 9 11 7 6 6 7 7 9 10 8 9 8 10 10 11 11 11 13 16 19 22 20 17 13 11 7 5 4 5 3
10 13 14 16 18 19 18 18 18 17 15 13 12 10 9 9 7 6 6 6 6 7 6 7 8 8 8 9 11 11 13 17 21 19 17 15 10 6 4 2 3 4 2
14 15 14 13 15 17 16 16 16 17 16 15 14 12 10 9 7 5 5 5 5 4 4 6 6 7 7 9 10 11 15 18 19 16 13 10 8 4 2 2 2 3 4
20 18 15 13 13 13 14 13 13 11 12 13 12 11 10 8 8 7 6 7 6 7 6 7 8 9 9 10 10 13 17 18 16 13 9 6 4 2 2 2 3 4 5
21 21 18 14 13 12 11 12 12 11 9 8 10 10 11 11 11 10 10 10 9 10 10 10 10 11 12 12 13 15 14 13 10 8 6 6 6 4 4 6 7 8 9
16 19 19 18 15 12 11 10 9 9 9 8 7 8 8 10 11 11 12 13 14 15 16 16 15 15 14 14 13 12 11 8 8 7 7 7 7 6 6 11 11 10 8
12 14 15 17 17 16 13 11 10 8 7 6 6 5 5 5 7 7 8 8 10 11 11 12 12 11 11 10 10 9 8 8 8 7 8 9 8 9 7 9 5 4 3
10 10 11 12 13 14 14 13 11 9 8 7 5 3 2 3 1 3 3 3 3 4 6 7 8 8 7 7 8 9 9 10 10 9 9 10 10 9 5 6 6 5 6
9 10 10 9 9 10 12 13 13 11 9 7 6 6 4 2 3 5 4 4 4 3 3 4 6 7 8 8 9 10 11 12 12 12 10 9 9 8 7 7 9 10 10
8 8 8 8 9 9 8 9 11 12 11 10 9 7 6 6 6 6 6 7 8 7 8 8 8 9 10 11 12 13 14 15 15 13 14 13 12 11 12 11 12 14 15
10 8 8 9 8 6 7 7 7 7 9 10 9 9 10 9 9 9 8 9 10 10 11 11 12 12 12 13 14 15 16 17 17 17 15 15 15 14 14 16 16 17 18
15 14 11 12 12 11 10 8 7 7 8 8 9 11 11 11 12 12 12 13 12 13 14 15 16 16 16 16 16 16 17 18 18 18 18 17 17 18 19 19 20 20 21
19 19 18 17 16 15 15 15 14 13 10 10 9 9 11 13 13 15 14 16 17 18 18 18 19 20 20 20 20 20 20 21 21 21 21 22 22 22 22 22 22 23 24
22 23 23 22 22 23 21 20 19 19 19 18 16 14 13 14 14 16 18 19 19 20 22 23 24 24 24 25 26 26 27 26 25 26 26 26 27 26 25 25 25 25 26
24 24 25 25 25 26 28 28 26 26 24 24 24 24 22 19 18 19 20 21 23 24 24 25 27 29 30 31 31 31 31 32 32 32 31 30 30 30 30 29 28 27 28
24 24 26 27 26 27 28 30 32 31 31 31 30 29 29 29 28 26 25 26 26 25 27 29 30 30 31 33 35 37 37 37 37 37 37 35 34 34 33 33 32 32 32
27 28 29 32 32 33 33 32 33 34 34 35 37 36 34 34 35 35 35 34 33 33 32 32 31 34 35 36 37 38 39 41 42 43 41 40 40 38 37 37 38 36 35
32 32 32 29 30 31 32 34 35 35 36 36 39 37 39 39 40 40 40 40 43 43 42 41 40 40 37 37 41 42 42 42 44 44 44 43 43 43 43 42 42 41 39
29 28 27 27 30 31 32 35 36 36 39 40 42 42 42 42 46 46 48 48 48 49 50 52 51 47 47 47 47 45 45 46 47 46 46 46 47 48 47 46 46 46 44
31 30 30 31 30 31 32 33 34 35 37 38 42 46 47 49 51 52 53 54 55 56 57 58 56 56 56 56 56 55 54 50 48 50 51 50 50 51 50 49 49 49 49
31 31 31 31 31 30 30 32 33 34 36 38 39 43 46 48 50 52 54 56 58 61 62 64 65 64 63 61 62 65 67 64 57 54 56 56 54 53 54 52 51 52 52
30 29 28 29 29 30 31 30 30 30 31 33 35 38 40 44 47 51 54 57 59 60 62 64 66 69 71 72 68 67 57 69 72 68 62 61 62 60 57 56 55 54 54
27 26 27 27 27 28 29 30 32 32 33 33 34 36 38 41 43 46 49 52 55 57 59 62 66 70 72 73 75 77 78 78 73 75 73 69 68 65 66 63 60 59 58
26 26 26 26 27 27 26 26 26 28 31 34 36 38 40 42 43 45 47 48 50 51 53 54 55 57 61 65 70 75 79 81 83 88 90 81 74 76 75 70 66 65 65
Wind_Direction
39 48 47 39 32 33 40 44 39 44 57 64 73 98 106 106 95 92 91 103 107 111 113 110 109 117 126 130 134 141 145 149 147 145 143 141 140 142 144 148 156 158 173
29 59 53 45 38 33 28 34 35 36 47 60 66 77 93 103 109 108 108 105 109 113 114 113 115 120 126 127 133 139 146 149 139 140 144 146 147 146 153 160 168 163 177
25 59 57 51 46 42 35 30 34 40 48 53 58 70 82 94 101 97 97 109 115 114 117 118 121 128 140 142 148 149 155 146 144 149 152 153 152 151 155 158 184 180 188
34 51 55 54 52 48 41 37 37 43 52 52 49 58 78 85 94 100 103 92 82 96 112 128 143 141 150 155 160 164 162 151 151 156 156 155 157 156 162 190 226 222 233
35 45 49 47 54 56 51 42 42 46 51 56 53 53 62 78 88 90 95 111 105 104 113 134 149 147 150 163 164 163 157 156 156 159 161 162 163 185 219 226 229 240 263
40 41 42 47 46 48 57 56 49 56 53 46 50 55 58 68 84 88 93 88 92 109 117 128 151 150 153 152 158 161 158 160 160 160 169 181 206 222 260 270 276 275 276
47 45 39 38 47 50 45 49 56 49 53 58 49 53 60 66 73 95 103 102 106 109 113 121 127 135 136 138 144 149 152 157 162 174 193 226 244 221 261 277 272 270 272
46 46 45 41 35 41 48 45 45 55 52 41 59 73 71 66 69 82 95 104 105 107 109 109 115 117 122 128 137 145 152 167 187 202 220 249 249 248 269 275 269 263 256
43 37 40 41 41 37 34 39 38 31 38 55 43 37 71 86 81 73 78 91 103 112 117 122 124 129 136 142 154 164 182 197 215 222 230 232 247 260 271 281 263 232 215
36 31 24 29 35 35 34 33 30 30 25 12 18 43 17 344 17 123 114 88 95 118 131 137 143 151 161 173 182 190 201 206 218 226 243 260 263 252 234 260 262 250 255
5 12 15 13 15 21 26 26 26 25 14 12 4 346 328 280 273 287 267 214 194 216 232 208 197 197 201 209 216 222 227 234 230 235 241 244 245 247 239 235 256 260 258
326 339 346 357 6 2 3 12 13 12 12 7 352 339 328 313 295 273 269 274 267 243 223 231 236 236 233 230 232 235 237 240 247 241 238 229 229 240 250 246 249 260 266
290 291 295 306 313 335 344 343 344 347 351 352 351 342 327 315 310 300 285 277 270 268 263 246 234 234 238 243 244 242 244 249 249 255 250 254 257 248 250 263 263 266 266
288 284 282 286 292 298 302 304 305 310 311 316 321 325 326 321 311 300 297 291 277 269 267 263 260 257 255 251 248 249 248 248 249 251 257 258 259 263 265 265 270 270 270
283 285 286 286 280 278 280 283 289 287 283 284 283 291 301 304 306 305 297 287 284 281 273 266 265 266 266 265 262 259 252 247 246 246 251 255 255 260 266 271 273 273 271
268 274 277 279 283 285 280 276 274 277 281 281 277 276 277 283 286 290 294 294 287 282 279 277 273 266 264 266 269 269 268 263 258 255 253 255 261 260 261 265 267 268 268
263 265 269 273 276 278 282 284 283 282 278 276 278 280 276 271 272 280 287 290 286 285 284 280 277 277 275 271 268 266 264 266 267 265 264 263 261 263 265 264 265 265 263
260 266 271 274 274 274 277 279 282 283 284 283 280 276 275 277 276 272 270 270 270 277 283 282 280 279 277 278 277 274 273 270 267 268 268 266 267 268 267 267 265 265 264
265 264 264 268 274 278 278 277 277 278 279 284 285 285 282 281 278 275 275 273 271 272 272 271 275 278 278 277 277 278 278 277 275 273 271 272 270 268 266 265 267 265 262
273 264 262 259 259 262 265 271 274 273 274 274 277 278 280 280 280 280 278 277 278 275 271 271 272 272 271 276 276 276 275 275 275 277 277 274 272 270 268 267 265 263 264
265 265 263 263 264 265 264 264 267 271 273 275 273 273 271 271 274 276 276 277 276 274 274 275 272 270 274 274 271 272 273 276 276 276 275 273 273 272 270 268 267 267 265
262 267 271 270 268 269 271 272 274 273 273 271 273 276 275 275 274 273 272 272 274 276 277 275 269 271 271 271 269 270 267 267 270 272 271 270 271 271 270 270 269 267 266
264 266 268 270 272 272 271 272 273 275 276 277 275 276 278 279 279 278 277 276 275 275 274 275 276 275 274 271 275 275 272 268 263 267 270 270 267 266 268 269 266 266 265
258 260 264 268 272 276 278 279 279 278 278 279 279 280 280 281 282 282 281 281 280 278 278 277 276 276 276 276 274 273 272 273 270 263 261 264 267 266 262 261 262 263 262
259 262 264 266 267 269 272 276 280 283 285 287 288 288 287 287 286 285 284 284 283 283 282 281 279 278 277 276 275 275 273 273 269 271 265 259 260 262 264 262 260 259 258
255 256 258 262 266 271 275 279 284 289 292 294 295 296 294 292 291 289 288 286 285 283 283 285 285 285 283 282 280 277 275 272 270 272 272 274 263 259 258 259 260 260 260
Height
5857 5854 5851 5849 5848 5846 5846 5847 5848 5848 5850 5851 5852 5853 5853 5853 5853 5852 5852 5852 5851 5851 5852 5853 5853 5855 5857 5857 5858 5860 5861 5862 5863 5864 5866 5867 5868 5869 5870 5871 5871 5871 5873
5860 5856 5853 5852 5851 5850 5850 5850 5850 5850 5850 5852 5853 5853 5853 5854 5855 5855 5856 5855 5854 5854 5855 5855 5856 5857 5858 5858 5860 5861 5862 5863 5863 5866 5868 5870 5869 5870 5871 5872 5872 5873 5874
5863 5858 5856 5855 5854 5854 5853 5853 5853 5853 5852 5853 5855 5856 5856 5856 5856 5855 5856 5858 5858 5857 5858 5857 5858 5859 5860 5860 5861 5862 5864 5864 5865 5867 5868 5870 5871 5872 5873 5873 5873 5873 5874
5865 5862 5859 5858 5857 5856 5856 5856 5856 5856 5856 5857 5857 5857 5858 5858 5858 5859 5859 5858 5858 5859 5860 5860 5861 5861 5862 5862 5864 5865 5866 5866 5867 5869 5870 5871 5873 5874 5874 5874 5874 5874 5874
5867 5865 5863 5862 5861 5859 5859 5859 5859 5859 5859 5860 5860 5860 5858 5858 5859 5858 5857 5858 5859 5859 5860 5862 5863 5863 5863 5864 5865 5867 5868 5869 5870 5872 5873 5874 5875 5875 5874 5875 5874 5874 5874
5870 5867 5866 5866 5865 5864 5863 5862 5861 5861 5861 5862 5863 5863 5863 5862 5861 5860 5860 5859 5860 5861 5862 5862 5864 5864 5865 5865 5866 5868 5870 5871 5872 5873 5875 5876 5876 5874 5874 5874 5874 5873 5872
5873 5870 5870 5869 5867 5867 5867 5867 5865 5865 5864 5864 5864 5865 5865 5865 5864 5863 5863 5863 5864 5864 5864 5864 5865 5865 5865 5866 5868 5871 5872 5873 5874 5874 5875 5875 5875 5873 5873 5873 5873 5872 5871
5875 5874 5873 5872 5870 5869 5869 5869 5869 5868 5868 5868 5867 5866 5867 5868 5868 5868 5867 5866 5866 5865 5866 5866 5867 5866 5867 5868 5870 5871 5872 5873 5874 5874 5874 5874 5874 5873 5872 5873 5871 5870 5869
5878 5878 5876 5875 5873 5872 5871 5870 5870 5871 5870 5869 5870 5870 5869 5868 5869 5870 5870 5870 5869 5868 5868 5868 5868 5869 5869 5869 5870 5870 5871 5873 5873 5873 5872 5872 5872 5871 5870 5870 5869 5868 5868
5880 5880 5879 5877 5875 5874 5873 5873 5872 5872 5872 5872 5872 5871 5871 5872 5871 5870 5870 5871 5872 5872 5871 5871 5870 5870 5870 5870 5871 5871 5871 5872 5871 5871 5871 5870 5869 5869 5867 5868 5868 5867 5867
5882 5881 5881 5880 5878 5876 5875 5874 5873 5873 5873 5872 5872 5873 5872 5871 5872 5872 5872 5870 5870 5871 5871 5871 5871 5871 5871 5871 5871 5872 5871 5870 5869 5868 5867 5867 5867 5868 5866 5865 5866 5866 5866
5881 5881 5881 5880 5880 5879 5877 5875 5874 5874 5873 5873 5873 5872 5872 5872 5872 5871 5871 5871 5871 5869 5868 5869 5869 5870 5870 5870 5870 5869 5869 5868 5867 5867 5866 5865 5864 5864 5865 5864 5863 5864 5863
5880 5880 5879 5879 5879 5878 5878 5877 5875 5874 5873 5873 5872 5872 5872 5872 5871 5871 5871 5871 5870 5870 5869 5868 5867 5866 5866 5867 5866 5866 5865 5865 5865 5865 5864 5864 5864 5862 5862 5862 5860 5860 5859
5877 5878 5878 5878 5878 5877 5877 5876 5875 5874 5873 5872 5872 5871 5871 5871 5870 5870 5870 5869 5868 5868 5868 5867 5867 5866 5865 5864 5863 5862 5862 5861 5861 5861 5860 5861 5861 5861 5860 5859 5858 5857 5856
5873 5874 5874 5875 5875 5876 5875 5874 5873 5873 5872 5871 5870 5870 5870 5870 5869 5868 5868 5867 5867 5866 5865 5864 5864 5864 5863 5862 5861 5860 5859 5858 5857 5857 5856 5855 5855 5856 5856 5855 5855 5854 5853
5871 5870 5870 5872 5871 5871 5871 5871 5871 5870 5870 5869 5868 5868 5868 5867 5867 5867 5866 5865 5864 5863 5862 5862 5861 5859 5859 5859 5858 5857 5856 5855 5854 5853 5852 5852 5851 5850 5850 5849 5849 5848 5849
5867 5867 5867 5867 5867 5866 5865 5865 5866 5866 5867 5866 5865 5865 5864 5864 5864 5864 5862 5861 5860 5859 5858 5857 5856 5856 5855 5854 5852 5851 5850 5850 5849 5848 5848 5848 5847 5846 5845 5844 5843 5842 5842
5864 5863 5862 5861 5861 5861 5862 5861 5860 5860 5861 5860 5860 5860 5860 5859 5859 5859 5857 5855 5854 5854 5853 5852 5851 5850 5848 5847 5846 5845 5845 5843 5843 5842 5841 5842 5841 5840 5839 5838 5838 5837 5837
5858 5859 5859 5858 5856 5855 5855 5855 5856 5855 5855 5854 5853 5853 5853 5852 5852 5852 5851 5850 5849 5848 5846 5844 5843 5842 5842 5842 5839 5838 5837 5836 5835 5834 5835 5835 5833 5833 5832 5831 5830 5830 5830
5849 5851 5852 5853 5851 5851 5850 5848 5848 5848 5848 5848 5846 5846 5845 5844 5843 5843 5843 5843 5841 5840 5839 5838 5836 5834 5834 5832 5829 5830 5830 5829 5827 5826 5827 5826 5825 5824 5824 5823 5822 5821 5822
5841 5842 5844 5846 5846 5845 5844 5844 5842 5841 5841 5841 5839 5839 5838 5837 5835 5834 5833 5832 5831 5830 5829 5828 5827 5827 5826 5822 5820 5820 5818 5818 5818 5818 5817 5816 5815 5813 5813 5814 5814 5814 5814
5834 5834 5834 5836 5837 5837 5836 5835 5834 5834 5833 5833 5831 5829 5828 5828 5826 5825 5823 5821 5820 5819 5817 5816 5814 5814 5812 5810 5807 5806 5807 5810 5807 5806 5804 5803 5804 5803 5802 5803 5803 5804 5804
5829 5829 5829 5829 5828 5828 5829 5828 5827 5826 5825 5823 5822 5821 5818 5817 5815 5813 5812 5810 5808 5806 5804 5801 5799 5798 5798 5798 5796 5792 5788 5789 5794 5796 5795 5792 5790 5790 5790 5791 5790 5790 5791
5823 5823 5823 5822 5822 5820 5820 5819 5818 5817 5816 5815 5813 5812 5810 5808 5805 5803 5800 5797 5795 5793 5791 5789 5786 5784 5782 5781 5783 5781 5772 5772 5769 5775 5779 5779 5777 5776 5774 5773 5773 5774 5774
5815 5816 5816 5816 5816 5815 5814 5812 5811 5809 5807 5806 5804 5802 5800 5798 5796 5793 5790 5787 5783 5780 5777 5774 5771 5768 5766 5765 5763 5762 5762 5759 5752 5745 5750 5762 5763 5761 5759 5759 5758 5757 5758
5808 5809 5809 5809 5809 5808 5807 5806 5805 5803 5801 5799 5796 5793 5790 5788 5785 5783 5780 5777 5773 5769 5765 5761 5758 5754 5751 5747 5744 5742 5739 5738 5738 5733 5727 5728 5738 5745 5742 5743 5741 5741 5742